DW2806 Boxford MA US current weather conditions

sailwx.info

Wind from 043

Air temperature 2.8° C
Dewpoint -0.7° C

Last reported at 2019-Dec-05 22:02 UTC.
Time now 2019-Dec-05 22:26 UTC

Location: N 42°40' W 070°58'.
View on Google Maps.

See reports from other nearby stations

  
Tides and Currents Weather Stations Pressure Air Temp Water Temp Dewpoint Dewpoint Depression Visibility Wind Speed Wind Dir Waves Ship Positions
date/time (UTC)wind fromknots sea level pressurealtimeterstation pressurevisibilityair tempwater tempwave heightnotes
2019-Dec-05 22:02 043 2.8
2019-Dec-05 21:46 043 2.8
2019-Dec-05 21:31 043 3.3
2019-Dec-05 21:16 358 3.3
2019-Dec-05 21:00 082 3.3
2019-Dec-05 20:45 061 0 gusting 5 3.3
2019-Dec-05 20:31 061 3.3
2019-Dec-05 20:16 061 0 gusting 4 3.3
2019-Dec-05 20:00 069 3.9
2019-Dec-05 19:45 069 3.9
2019-Dec-05 19:30 069 3.9
2019-Dec-05 19:15 069 3.9
2019-Dec-05 19:00 069 4.4
2019-Dec-05 18:45 069 4.4
2019-Dec-05 18:30 069 0 gusting 3 4.4
2019-Dec-05 18:15 037 5.0
2019-Dec-05 18:00 071 5.6
2019-Dec-05 17:45 344 5.6
2019-Dec-05 17:32 039 5.0
2019-Dec-05 17:16 076 4.4
2019-Dec-05 17:02 083 1 gusting 6 4.4
2019-Dec-05 16:46 041 4.4
2019-Dec-05 16:31 119 3.9
2019-Dec-05 16:16 131 0 gusting 5 3.3
2019-Dec-05 16:01 039 3.3
2019-Dec-05 15:46 039 2.8
2019-Dec-05 15:31 039 2.8
2019-Dec-05 15:16 017 2.2
2019-Dec-05 15:01 017 1.7
2019-Dec-05 14:46 017 0.6
2019-Dec-05 14:30 327 -0.0
2019-Dec-05 14:15 337 -1.1
2019-Dec-05 14:00 312 -1.7
2019-Dec-05 13:45 312 -2.2
2019-Dec-05 13:30 312 -3.3
2019-Dec-05 13:15 312 -3.9
2019-Dec-05 13:00 312 -3.9
2019-Dec-05 12:45 312 -3.9
2019-Dec-05 12:30 312 -4.4
2019-Dec-05 12:15 312 -4.4
2019-Dec-05 12:00 312 -4.4
2019-Dec-05 11:45 312 -4.4
2019-Dec-05 11:30 312 -4.4
2019-Dec-05 11:16 312 -4.4
2019-Dec-05 11:03 312 -3.9
2019-Dec-05 10:47 312 -4.4
2019-Dec-05 10:31 312 -4.4
2019-Dec-05 10:16 312 -4.4
2019-Dec-05 10:01 312 -3.9
2019-Dec-05 09:46 312 -3.9
2019-Dec-05 09:31 312 -3.3
2019-Dec-05 09:16 312 -3.3
2019-Dec-05 09:01 312 -3.3
2019-Dec-05 08:46 312 -3.3
2019-Dec-05 08:31 312 -3.3
2019-Dec-05 08:15 312 -3.3
2019-Dec-05 08:01 312 -2.8
2019-Dec-05 07:45 312 -2.8
2019-Dec-05 07:30 312 -2.2
2019-Dec-05 07:15 312 -2.2
2019-Dec-05 07:01 312 -1.7
2019-Dec-05 06:46 312 -1.7
2019-Dec-05 06:30 312 -1.1
2019-Dec-05 06:15 312 -1.1
2019-Dec-05 06:00 312 -1.1
2019-Dec-05 05:45 312 -1.1
2019-Dec-05 05:30 312 -1.1
2019-Dec-05 05:15 312 -0.6
2019-Dec-05 05:00 312 -1.1
2019-Dec-05 04:45 312 -0.6
2019-Dec-05 04:30 312 -0.6
2019-Dec-05 04:15 312 -0.6
2019-Dec-05 04:00 312 -0.6
2019-Dec-05 03:45 312 -0.0
2019-Dec-05 03:30 312 -0.0
2019-Dec-05 03:15 312 -0.0
2019-Dec-05 03:00 312 -0.0
2019-Dec-05 02:45 312 -0.0
2019-Dec-05 02:30 312 -0.0
2019-Dec-05 02:15 312 -0.0
2019-Dec-05 02:00 312 -0.0
2019-Dec-05 01:45 312 -0.0
2019-Dec-05 01:30 312 -0.0
2019-Dec-05 01:15 312 -0.0
2019-Dec-05 01:00 312 -0.0
2019-Dec-05 00:45 312 -0.0
2019-Dec-05 00:17 312 -0.0
2019-Dec-05 00:02 312 -0.0
2019-Dec-04 23:47 312 -0.0
2019-Dec-04 23:31 312 -0.0
2019-Dec-04 23:18 312 -0.0
2019-Dec-04 23:01 312 -0.0
2019-Dec-04 22:47 312 -0.0
2019-Dec-04 22:31 312 -0.0
2019-Dec-04 22:16 312 -0.0
2019-Dec-04 22:02 312 0.6
2019-Dec-04 21:47 312 0.6
2019-Dec-04 21:32 312 0.6
2019-Dec-04 21:16 312 0.6
2019-Dec-04 21:02 312 0.6
2019-Dec-04 20:47 312 1.1
2019-Dec-04 20:31 312 1.1
2019-Dec-04 20:17 312 1.7
2019-Dec-04 20:02 312 1.7
2019-Dec-04 19:46 312 1.7
2019-Dec-04 19:31 312 2.2
2019-Dec-04 19:16 309 2.2
2019-Dec-04 19:01 309 2.2
2019-Dec-04 18:46 309 2.2
2019-Dec-04 18:32 309 1.7
2019-Dec-04 18:16 309 1.7
2019-Dec-04 18:02 309 1.7
2019-Dec-04 17:46 309 1.7
2019-Dec-04 17:31 309 1.1
2019-Dec-04 17:16 309 1.1
2019-Dec-04 17:01 309 1.1
2019-Dec-04 16:46 309 1.1
2019-Dec-04 16:31 309 0.6
2019-Dec-04 16:16 014 1.1
2019-Dec-04 16:03 007 0.6
2019-Dec-04 15:46 008 0.6
2019-Dec-04 15:30 008 -0.0
2019-Dec-04 15:15 008 -0.6
2019-Dec-04 15:01 008 -0.6
2019-Dec-04 14:45 008 -1.1
2019-Dec-04 14:30 009 -1.7
2019-Dec-04 14:15 009 -2.2
2019-Dec-04 14:00 009 -3.3
2019-Dec-04 13:45 009 -3.9
2019-Dec-04 13:30 009 -4.4
2019-Dec-04 13:15 009 -5.0
2019-Dec-04 13:00 009 -5.6
2019-Dec-04 12:45 009 -6.1
2019-Dec-04 12:32 009 -6.1
2019-Dec-04 12:17 009 -6.1
2019-Dec-04 12:01 009 -6.1
2019-Dec-04 11:47 009 -6.1
2019-Dec-04 11:31 009 -6.1
2019-Dec-04 11:16 009 -6.1
2019-Dec-04 11:03 009 -6.1
2019-Dec-04 10:46 009 -6.1
2019-Dec-04 10:31 009 -6.1
2019-Dec-04 10:16 009 -6.1
2019-Dec-04 10:01 009 -6.7
2019-Dec-04 09:47 009 -6.7
2019-Dec-04 09:31 009 -7.2
2019-Dec-04 09:16 009 -7.2
2019-Dec-04 09:01 009 -7.2
2019-Dec-04 08:45 009 -7.2
2019-Dec-04 08:31 009 -6.7
2019-Dec-04 08:15 009 -6.7
2019-Dec-04 08:01 009 -6.1
2019-Dec-04 07:45 009 -6.1
2019-Dec-04 07:30 009 -5.6
2019-Dec-04 07:15 009 -5.6
2019-Dec-04 07:00 009 -5.6
2019-Dec-04 06:45 009 -5.6
2019-Dec-04 06:30 009 -5.0
2019-Dec-04 06:15 009 -5.0
2019-Dec-04 06:00 009 -5.0
2019-Dec-04 05:45 009 -5.0
2019-Dec-04 05:30 009 -5.0
2019-Dec-04 05:15 009 -4.4
2019-Dec-04 05:00 009 -5.0
2019-Dec-04 04:45 009 -4.4
2019-Dec-04 04:30 009 -4.4
2019-Dec-04 04:15 009 -4.4
2019-Dec-04 04:00 009 -4.4
2019-Dec-04 03:45 009 -4.4
2019-Dec-04 03:30 009 -4.4
2019-Dec-04 03:15 009 -4.4
2019-Dec-04 03:02 009 -4.4
2019-Dec-04 02:48 009 -4.4
2019-Dec-04 02:32 009 -4.4
2019-Dec-04 02:16 009 -4.4
2019-Dec-04 02:02 009 -4.4
2019-Dec-04 01:48 009 -4.4
2019-Dec-04 01:32 009 -4.4
2019-Dec-04 01:17 009 -3.9
2019-Dec-04 01:02 009 -3.3
2019-Dec-04 00:46 009 -3.3
2019-Dec-04 00:32 009 -3.3
2019-Dec-04 00:16 009 -2.8
2019-Dec-04 00:01 009 -2.8
2019-Dec-03 23:46 009 -2.2
2019-Dec-03 23:31 009 -1.7
2019-Dec-03 23:16 009 -1.7
2019-Dec-03 23:02 009 -1.7
2019-Dec-03 22:46 009 -1.7
2019-Dec-03 22:16 009 -1.7
2019-Dec-03 22:01 009 -1.7